This demonstration page uses our WeatherBlox Daily Observations layout. Learn more.

Left ArrowRight Arrow

Hourly Observations for August 2, 2021

Temp ( °F °C ) Dew Point ( °F °C ) Humidity (%) Winds ( mph kmh ) Pressure ( in mb ) Visibility ( mi km ) Precip ( " mm )
12:53 am 00:53 Clear with Smoke 81 27.2 52 11.1 37 37 Calm 29.95 1014 10 16 0.00 0.00
1:53 am 01:53 Clear with Smoke 76 24.4 51 10.6 42 42 Calm 29.96 1014 10 16 0.00 0.00
2:53 am 02:53 Clear with Smoke 75 23.9 49 9.4 40 40 Calm 29.97 1015 10 16 0.00 0.00
3:53 am 03:53 Clear with Smoke 73 22.8 49 9.4 43 43 Calm 29.98 1015 10 16 0.00 0.00
4:53 am 04:53 Clear with Smoke 75 23.9 50 10 41 41 SSW 6 9 29.99 1016 10 16 0.00 0.00
5:53 am 05:53 Clear with Smoke 70 21.1 49 9.4 47 47 SW 5 7 30.01 1016 10 16 0.00 0.00
6:53 am 06:53 Sunny with Smoke 73 22.8 47 8.3 40 40 SSW 8 13 30.03 1017 10 16 0.00 0.00
7:53 am 07:53 Sunny with Smoke 74 23.3 46 7.8 37 37 SSW 5 7 30.04 1017 10 16 0.00 0.00
8:53 am 08:53 Sunny with Smoke 76 24.4 47 8.3 36 36 SSW 5 7 30.04 1017 10 16 0.00 0.00
9:53 am 09:53 Sunny with Smoke 79 26.1 48 8.9 34 34 SSW 5 7 30.04 1017 10 16 0.00 0.00
10:53 am 10:53 Sunny with Smoke 84 28.9 49 9.4 30 30 Calm 30.03 1017 10 16 0.00 0.00
11:53 am 11:53 Sunny with Smoke 88 31.1 50 10 27 27 Calm 30.02 1017 10 16 0.00 0.00
12:53 pm 12:53 Sunny with Smoke 92 33.3 48 8.9 22 22 S 7 11 30.01 1016 10 16 0.00 0.00
1:53 pm 13:53 Sunny with Smoke 95 35 49 9.4 21 21 VRB 7 11 29.98 1015 10 16 0.00 0.00
2:53 pm 14:53 Sunny with Smoke 96 35.6 48 8.9 19 19 undefined N/A 29.96 1015 10 16 0.00 0.00
3:53 pm 15:53 Sunny with Smoke 99 37.2 42 5.6 14 14 SSE 14 22 29.95 1014 10 16 0.00 0.00
4:53 pm 16:53 Sunny with Smoke 97 36.1 43 6.1 16 16 SSE 10 17 29.94 1014 8 13 0.00 0.00
5:53 pm 17:53 Sunny with Smoke 96 35.6 36 2.2 12 12 S 9 15 29.94 1014 10 16 0.00 0.00
6:53 pm 18:53 Sunny with Smoke 95 35 34 1.1 12 12 S 7 11 29.93 1014 10 16 0.00 0.00
7:03 pm 19:03 Partly Cloudy with Smoke 95 35 40 4.4 15 15 SE 8 13 29.91 1013 10 16 0.00 0.00
7:53 pm 19:53 Partly Cloudy with Smoke 91 32.8 36 2.2 14 14 SE 3 6 29.93 1014 10 16 0.00 0.00
8:53 pm 20:53 Clear with Smoke 86 30 38 3.3 18 18 SSE 5 7 29.94 1014 10 16 0.00 0.00
9:53 pm 21:53 Clear with Smoke 79 26.1 40 4.4 25 25 VRB 5 7 29.95 1014 10 16 0.00 0.00
10:53 pm 22:53 Clear with Smoke 78 25.6 40 4.4 26 26 Calm 29.96 1014 10 16 0.00 0.00
11:53 pm 23:53 Clear with Smoke 73 22.8 42 5.6 33 33 Calm 29.95 1014 10 16 0.00 0.00

Powered by AerisWeather